Regional Weather Roundup
Issued by NWS Sterling, VA

Home | Current Version | Previous Version | Text Only | Print | Product List | Glossary On
Versions: 1 2 3 4 5 6 7 8 9 10 11 12 13 14 15 16 17 18 19 20 21 22 23 24 25 26 27 28
000
ASUS41 KLWX 010110
RWRLWX

REGIONAL WEATHER ROUNDUP
NATIONAL WEATHER SERVICE BALTIMORE MD/WASHINGTON DC
900 PM EDT FRI OCT 31 2014

Note: "FAIR" indicates few or no clouds below 12,000 feet
with no significant weather and/or obstructions to visibility.
 TC=TEMPERATURE CELSIUS

 * =Non NWS site. Station does not report precipitation (e.g. rain,
    snow, etc.), thunder, or fog.

DCZ001-MDZ009-015-VAZ040>042-051-053>054-010200-
WASHINGTON METRO

CITY           SKY/WX    TMP DP  RH WIND       PRES   REMARKS
WASHINGTON NAT MOCLDY    54  34  46 NE8       29.86S
DULLES         CLOUDY    47  35  63 N6        29.86S
ANDREWS AFB    PTCLDY    47  35  64 NW6       29.84F
FT BELVOIR     FAIR      43  39  86 CALM      29.86S
QUANTICO       MOCLDY    52  37  56 N6        29.86S
COLLEGE PARK*  CLOUDY    48  41  76 CALM      29.85F
LEESBURG*      CLOUDY    50  37  62 NE3       29.87S
GAITHERSBURG*  CLOUDY    46  36  66 N3        29.89F

$$

MDZ006>007-011-014-010200-
BALTIMORE METRO

CITY           SKY/WX    TMP DP  RH WIND       PRES   REMARKS
BWI AIRPORT    MOCLDY    49  37  63 NE6       29.85F
MD SCIENCE CTR   N/A     51  37  58 MISG      29.86F
MARTIN STATE   PTCLDY    46  41  81 CALM      29.88F
ANNAPOLIS      CLEAR     51  39  63 N3        29.85F
FORT MEADE*    PTCLDY    41  36  81 E3        29.88S

$$

MDZ012-015-019>023-010200-
MARYLAND EASTERN SHORE

CITY           SKY/WX    TMP DP  RH WIND       PRES   REMARKS
OCEAN CITY     MOCLDY    49  43  80 N7        29.80F
SALISBURY      CLOUDY    52  40  63 N8        29.82F
BAY BRIDGE AP*   N/A     48  37  66 NE6       29.85F
CAMBRIDGE*     MOCLDY    52  41  66 N5        29.83F

$$

MDZ017>025-010200-
SOUTHERN MARYLAND

CITY           SKY/WX    TMP DP  RH WIND       PRES   REMARKS
PATUXENT RIVER PTCLDY    50  40  68 E8        29.84S
ST INIGOES     PTCLDY    47  37  68 N3        29.83S
LEONARDTOWN*   PTCLDY    41  36  81 CALM      29.85S

$$

MDZ003>005-010200-
NORTH CENTRAL MARYLAND

CITY           SKY/WX    TMP DP  RH WIND       PRES   REMARKS
FREDERICK*     MOCLDY    50  37  62 NE3       29.88F
HAGERSTOWN APT CLOUDY    49  34  56 N6        29.86F
WESTMINSTER*   CLOUDY    46  34  61 CALM      29.86S

$$

MDZ501>502-010200-
WESTERN MARYLAND

CITY           SKY/WX    TMP DP  RH WIND       PRES   REMARKS
OAKLAND*       CLOUDY    36 N/A N/A CALM      29.82S HAZE
CUMBERLAND*    CLOUDY    46  43  87 CALM      29.91R

$$

VAZ025>031-010200-
SHENANDOAH VALLEY

CITY           SKY/WX    TMP DP  RH WIND       PRES   REMARKS
WINCHESTER*    CLOUDY    50  32  50 CALM      29.85S
FRONT ROYAL*   CLOUDY    46  36  66 CALM      29.84S
LURAY*         CLOUDY    48  41  76 NE3       29.84S
NEW MARKET*    CLOUDY    46  39  75 N3        29.83S
STAUNTON*      DRIZZLE   46  41  85 CALM      29.85S
WAYNESBORO*    CLOUDY    45  39  81 W3        29.82F

$$

WVZ021-048>050-054>055-010200-
EASTERN WEST VIRGINIA PANHANDLE

CITY           SKY/WX    TMP DP  RH WIND       PRES   REMARKS
MARTINSBURG    CLOUDY    49  35  58 NE5       29.86F
PETERSBURG*    DRIZZLE   46  41  85 CALM      29.86S

$$

VAZ036>039-050-010200-
CENTRAL FOOTHILLS

CITY           SKY/WX    TMP DP  RH WIND       PRES   REMARKS
CHARLOTTESVILL MOCLDY    49  37  63 NE3       29.83F
CULPEPER*      CLOUDY    50  37  62 CALM      29.86S
ORANGE*        MOCLDY    50  37  62 N3        29.85F
GORDONSVILLE*  CLOUDY    48  39  72 CALM      29.83F
WARRENTON*     CLOUDY    49  44  84 CALM      29.85S

$$

VAZ055>057-010200-
NORTH AND CENTRAL PIEDMONT

CITY           SKY/WX    TMP DP  RH WIND       PRES   REMARKS
FREDERICKSBRG* MOCLDY    45  40  85 NW3       29.85R
STAFFORD*      MOCLDY    42  37  83 CALM      29.89S

$$

NCZ024-NYZ072-PAZ021-071-VAZ022-071-010200-
OTHER REGIONAL OBSERVATIONS

CITY           SKY/WX    TMP DP  RH WIND       PRES   REMARKS
NEW YORK CITY  CLOUDY    53  38  56 NE10      29.91S
PHILADELPHIA   LGT RAIN  51  40  65 NE12      29.86F
PITTSBURGH     LGT RAIN  42  40  92 NE3       29.88S
ROANOKE        LGT RAIN  46  43  89 CALM      29.85F
RICHMOND       MOCLDY    48  37  65 NE7       29.83F
RALEIGH        CLOUDY    53  44  71 NE3       29.81S

$$

ANZ530>537-010200-
MARINE OBSERVATIONS

STATION/POSITION TIME  TEMP    WIND        PRES
                       AIR SEA DIR/SP/G
                 (UTC) (F)     (DEG/KT/KT) (MB)
THOMAS PT LIGHT  0100   51 60   60/ 13/ 16 1011.6F
BALT KEY BRIDGE  0100   51      40/  9/ 10 1010.6F
COVE POINT       0100   51      80/ 11/ 14 1010.2S
LEWISETTA        0100   53 60   20/  4/  7 1009.8R
SOLOMONS ISLAND  0100      62                N/A
PINEY POINT      0100           10/  7/  8   N/A

$$




USA.gov is the U.S. government's official web portal to all federal, state and local government web resources and services.